User: anonymous   Login
Location: Unspecified
(0.0000°N, 0.0000°E)
Time: 19:39:16
(UTC+00:00)
Language:

COSMOS 2467 - Orbit

View from above orbital plane
View from above orbital plane
View from above satellite
View from above satellite

Ground track
Ground track

The orbit data is extracted from the following two-line orbital elements,

1 37152U 10043A   21026.23652734  .00000031  00000-0  15511-3 0  9999
2 37152  82.4544 215.9494 0002008 125.1415 234.9853 12.42899188471075
Epoch (UTC): 26 January 2021 05:40:35
Eccentricity: 0.0002008
inclination: 82.4544°
perigee height: 1493 km
apogee height: 1496 km
right ascension of ascending node: 215.9494°
argument of perigee: 125.1415°
revolutions per day: 12.42899188
mean anomaly at epoch: 234.9853°
orbit number at epoch: 47107

The dashed part of the orbit path shows where the satellite is in the earth's shadow,  

DLR